Total_Precipitation_Accumulation
0.02 0.01 0.00 0.01 0.01 0.01 0.00 0.00 0.00 0.00 0.00 0.00 0.00 0.00 0.00 0.00 0.00 0.03 0.05 0.12 0.15 0.12 0.09 0.10 0.07 0.03 0.03 0.08 0.12 0.17 0.21 0.27 0.35 0.31 0.20 0.15 0.11 0.06 0.04 0.04 0.04 0.01 0.00
0.02 0.02 0.00 0.01 0.02 0.01 0.01 0.00 0.00 0.00 0.00 0.00 0.00 0.00 0.00 0.00 0.00 0.01 0.01 0.06 0.15 0.17 0.19 0.23 0.18 0.10 0.08 0.11 0.13 0.15 0.18 0.19 0.22 0.24 0.20 0.16 0.15 0.10 0.06 0.04 0.04 0.01 0.00
0.07 0.05 0.02 0.01 0.02 0.02 0.03 0.03 0.01 0.00 0.00 0.01 0.00 0.00 0.00 0.00 0.00 0.00 0.00 0.01 0.07 0.17 0.27 0.37 0.37 0.25 0.17 0.15 0.13 0.11 0.12 0.13 0.13 0.15 0.16 0.14 0.10 0.07 0.04 0.03 0.02 0.01 0.00
0.13 0.09 0.06 0.05 0.06 0.06 0.08 0.08 0.04 0.02 0.01 0.01 0.00 0.00 0.00 0.00 0.00 0.00 0.00 0.01 0.02 0.08 0.18 0.30 0.42 0.52 0.36 0.17 0.10 0.08 0.05 0.05 0.05 0.05 0.06 0.05 0.03 0.02 0.01 0.02 0.01 0.00 0.00
0.21 0.18 0.21 0.19 0.16 0.15 0.11 0.09 0.07 0.05 0.04 0.02 0.01 0.00 0.00 0.00 0.00 0.00 0.00 0.00 0.01 0.02 0.06 0.09 0.19 0.29 0.27 0.26 0.23 0.11 0.06 0.03 0.02 0.01 0.01 0.00 0.00 0.00 0.01 0.02 0.01 0.00 0.00
0.39 0.35 0.33 0.27 0.23 0.25 0.19 0.17 0.17 0.11 0.08 0.05 0.01 0.01 0.00 0.00 0.00 0.00 0.00 0.00 0.00 0.00 0.01 0.01 0.03 0.03 0.09 0.21 0.20 0.07 0.04 0.04 0.04 0.02 0.01 0.00 0.00 0.00 0.01 0.01 0.01 0.01 0.01
0.49 0.47 0.47 0.40 0.31 0.28 0.28 0.30 0.32 0.24 0.16 0.09 0.03 0.01 0.00 0.00 0.00 0.00 0.00 0.00 0.00 0.00 0.00 0.00 0.00 0.01 0.02 0.02 0.04 0.06 0.08 0.09 0.07 0.04 0.03 0.01 0.00 0.00 0.00 0.01 0.02 0.02 0.02
0.42 0.43 0.48 0.47 0.39 0.36 0.42 0.38 0.36 0.39 0.33 0.22 0.13 0.05 0.02 0.01 0.00 0.00 0.00 0.00 0.00 0.00 0.00 0.00 0.00 0.00 0.01 0.01 0.01 0.01 0.04 0.07 0.06 0.04 0.02 0.01 0.01 0.01 0.01 0.01 0.01 0.02 0.03
0.42 0.37 0.36 0.37 0.35 0.34 0.38 0.46 0.49 0.54 0.49 0.44 0.32 0.17 0.10 0.08 0.04 0.01 0.00 0.00 0.00 0.00 0.00 0.00 0.00 0.00 0.00 0.00 0.00 0.00 0.00 0.01 0.02 0.03 0.03 0.02 0.02 0.02 0.03 0.03 0.03 0.02 0.03
0.28 0.20 0.26 0.30 0.34 0.41 0.46 0.57 0.55 0.58 0.59 0.51 0.47 0.32 0.21 0.15 0.10 0.07 0.02 0.00 0.00 0.00 0.00 0.00 0.00 0.00 0.00 0.00 0.00 0.00 0.00 0.00 0.01 0.01 0.02 0.03 0.02 0.02 0.03 0.03 0.03 0.03 0.03
0.24 0.18 0.20 0.21 0.22 0.25 0.33 0.39 0.35 0.42 0.49 0.54 0.54 0.50 0.41 0.36 0.19 0.10 0.07 0.03 0.01 0.00 0.00 0.00 0.00 0.00 0.00 0.00 0.00 0.00 0.00 0.00 0.00 0.00 0.01 0.01 0.02 0.02 0.02 0.02 0.02 0.03 0.03
0.16 0.15 0.14 0.21 0.24 0.17 0.19 0.24 0.24 0.31 0.37 0.41 0.48 0.49 0.50 0.55 0.52 0.32 0.19 0.10 0.04 0.01 0.00 0.00 0.00 0.00 0.00 0.00 0.00 0.00 0.00 0.00 0.00 0.00 0.00 0.00 0.00 0.01 0.01 0.01 0.01 0.02 0.04
0.11 0.10 0.09 0.14 0.19 0.17 0.22 0.18 0.08 0.13 0.24 0.30 0.36 0.42 0.48 0.52 0.57 0.53 0.45 0.33 0.18 0.06 0.01 0.00 0.00 0.00 0.00 0.00 0.00 0.00 0.00 0.00 0.00 0.00 0.00 0.00 0.00 0.00 0.00 0.00 0.00 0.01 0.02
0.08 0.06 0.05 0.04 0.06 0.06 0.13 0.19 0.10 0.06 0.08 0.13 0.22 0.30 0.37 0.48 0.54 0.48 0.46 0.42 0.31 0.19 0.08 0.04 0.01 0.00 0.00 0.00 0.00 0.00 0.00 0.00 0.00 0.00 0.00 0.00 0.00 0.00 0.00 0.00 0.00 0.00 0.01
0.04 0.02 0.02 0.01 0.01 0.02 0.05 0.11 0.18 0.18 0.09 0.07 0.12 0.19 0.20 0.23 0.29 0.31 0.38 0.37 0.27 0.19 0.16 0.12 0.07 0.02 0.01 0.01 0.00 0.00 0.00 0.00 0.00 0.00 0.00 0.00 0.00 0.00 0.00 0.00 0.00 0.00 0.00
0.02 0.02 0.01 0.01 0.01 0.03 0.09 0.13 0.09 0.12 0.11 0.12 0.13 0.15 0.18 0.18 0.19 0.20 0.27 0.36 0.29 0.18 0.13 0.14 0.12 0.07 0.04 0.02 0.01 0.00 0.00 0.00 0.00 0.00 0.00 0.00 0.00 0.00 0.00 0.00 0.00 0.00 0.00
0.02 0.02 0.02 0.02 0.03 0.04 0.03 0.02 0.01 0.01 0.03 0.05 0.06 0.08 0.14 0.21 0.22 0.21 0.22 0.29 0.33 0.26 0.17 0.15 0.12 0.14 0.11 0.05 0.04 0.03 0.01 0.00 0.00 0.00 0.00 0.00 0.00 0.00 0.00 0.00 0.00 0.00 0.00
0.03 0.02 0.02 0.03 0.04 0.03 0.02 0.01 0.01 0.01 0.01 0.01 0.02 0.03 0.08 0.14 0.18 0.20 0.22 0.25 0.28 0.31 0.27 0.24 0.20 0.16 0.15 0.12 0.08 0.04 0.03 0.02 0.01 0.01 0.00 0.00 0.00 0.00 0.00 0.00 0.00 0.00 0.00
0.05 0.05 0.03 0.03 0.05 0.06 0.04 0.02 0.02 0.01 0.01 0.01 0.01 0.02 0.05 0.08 0.12 0.17 0.24 0.30 0.32 0.30 0.29 0.27 0.26 0.23 0.17 0.15 0.10 0.05 0.03 0.03 0.04 0.02 0.01 0.00 0.00 0.00 0.00 0.00 0.00 0.00 0.00
0.11 0.10 0.07 0.07 0.11 0.13 0.11 0.07 0.04 0.03 0.02 0.01 0.01 0.01 0.02 0.05 0.10 0.21 0.31 0.37 0.38 0.36 0.36 0.36 0.36 0.33 0.24 0.16 0.10 0.06 0.05 0.04 0.03 0.03 0.01 0.00 0.00 0.00 0.00 0.00 0.00 0.00 0.00
0.20 0.17 0.14 0.12 0.15 0.18 0.17 0.15 0.11 0.07 0.04 0.02 0.01 0.01 0.01 0.03 0.07 0.16 0.28 0.43 0.45 0.43 0.42 0.44 0.43 0.36 0.26 0.17 0.11 0.08 0.06 0.05 0.03 0.01 0.00 0.00 0.00 0.00 0.00 0.00 0.00 0.00 0.00
0.26 0.24 0.20 0.15 0.13 0.16 0.22 0.20 0.15 0.11 0.07 0.04 0.02 0.01 0.01 0.01 0.03 0.07 0.12 0.24 0.35 0.41 0.44 0.43 0.44 0.41 0.33 0.24 0.19 0.13 0.07 0.04 0.03 0.03 0.01 0.01 0.00 0.00 0.00 0.00 0.00 0.00 0.00
0.29 0.30 0.25 0.18 0.13 0.15 0.18 0.16 0.18 0.20 0.16 0.10 0.05 0.02 0.02 0.01 0.02 0.03 0.07 0.13 0.17 0.21 0.25 0.28 0.30 0.30 0.31 0.28 0.24 0.17 0.11 0.08 0.08 0.06 0.02 0.03 0.02 0.01 0.01 0.00 0.00 0.00 0.00
0.27 0.34 0.28 0.24 0.23 0.19 0.19 0.23 0.21 0.21 0.23 0.21 0.15 0.06 0.03 0.01 0.02 0.04 0.05 0.07 0.11 0.14 0.15 0.15 0.16 0.19 0.22 0.26 0.27 0.29 0.25 0.17 0.10 0.07 0.04 0.03 0.03 0.02 0.01 0.01 0.00 0.00 0.00
0.18 0.16 0.20 0.33 0.31 0.26 0.30 0.28 0.21 0.18 0.21 0.23 0.20 0.15 0.10 0.06 0.06 0.05 0.06 0.06 0.06 0.09 0.13 0.19 0.27 0.28 0.29 0.33 0.35 0.36 0.31 0.26 0.21 0.19 0.17 0.12 0.09 0.06 0.03 0.02 0.01 0.00 0.00
0.08 0.08 0.11 0.21 0.27 0.28 0.26 0.15 0.17 0.20 0.21 0.23 0.20 0.16 0.19 0.15 0.12 0.09 0.08 0.11 0.09 0.08 0.15 0.22 0.26 0.28 0.28 0.31 0.36 0.37 0.39 0.40 0.36 0.31 0.26 0.20 0.17 0.15 0.11 0.06 0.03 0.01 0.01